Location: Zagreb
(45.8000°N, 16.0000°E)
Time: 09:26:47
(UTC+01:00)

Tiros 1 despin weight - Visible Passes

Search period start: 23 January 2020 00:00
Search period end: 02 February 2020 00:00
Orbit: 594 x 643 km, 48.2° (Epoch: 22 January)

Date Brightness Start Highest point End Pass type
(mag) Time Alt. Az. Time Alt. Az. Time Alt. Az.
23 Jan ? 18:36:49 10° W 18:40:05 19° SW 18:43:21 10° S visible
25 Jan ? 17:27:59 10° W 17:31:50 26° SW 17:35:41 10° SSE visible
26 Jan ? 17:45:28 10° WSW 17:48:02 15° SW 17:50:36 10° SSW visible
